Location: Newark
(11.6000°N, 43.1667°E)
Time: 09:32:40
(UTC+00:00)

LightSail 2 - Pass Details

Date: 24 September 2019
Orbit: 707 x 722 km, 24.0° (Epoch: 19 October)

Event Time Altitude Azimuth Distance (km) Brightness Sun altitude
Exits shadow 02:01:43 11° 313° (NW) 2,099 7.2 -14.2°
Maximum altitude 02:05:10 20° 357° (N) 1,603 7.0 -13.4°
Drops below altitude 10° 02:08:50 10° 44° (NE) 2,159 8.3 -12.5°
Sets 02:11:53 0° 61° (ENE) 3,078 9.7 -11.7°
